Weather History for Grove, OK

Change the Weather History Date:

Sunday, October 9, 2011

  Actual Average (KSLG) Record (KSLG)
Temperature  
Mean Temperature 71 °F -  
Max Temperature 80 °F 69 °F 82 °F (2010)
Min Temperature 62 °F 48 °F 24 °F (2000)
Cooling Degree Days 6    
Growing Degree Days 21 (Base 50)    
Moisture  
Dew Point 56 °F    
Average Humidity 59    
Maximum Humidity 88    
Minimum Humidity 39    
Precipitation  
Precipitation 0.00 in - - ()
Sea Level Pressure  
Sea Level Pressure 30.10 in    
Wind  
Wind Speed 8 mph (ESE)    
Max Wind Speed 16 mph    
Max Gust Speed 22 mph    
Visibility 10 miles    
Events      
Averages and records for this station are not official NWS values.
T = Trace of Precipitation, MM = Missing Value Source: NWS Daily Summary

Daily Weather History Graph

Daily Weather History Graph

Search for Another Location

Airport:

Trip Planner

Search our weather history database for the weather conditions in past years. The results will help you decide how hot, cold, wet, or windy it might be!

Date:

Astronomy

Oct. 09, 2011 Rise Set
Actual Time 7:20 AM CDT 6:51 PM CDT
Civil Twilight 6:54 AM CDT 7:17 PM CDT
Nautical Twilight 6:24 AM CDT 7:46 PM CDT
Astronomical Twilight 5:54 AM CDT 8:16 PM CDT
Moon 5:26 PM CDT (10/9) 5:08 AM CDT (10/9)
Length of Visible Light 12h 22m
Length of Day
11h 30m
Waxing Gibbous, 95% of the Moon is Illuminated
Oct 9
Waxing Gibbous
Oct 11
Full
Oct 19
Last Quarter
Oct 26
New
Nov 2
First Quarter

Hourly Weather History & Observations

Time (CDT) Temp. Heat Index Dew Point Humidity Pressure Visibility Wind Dir Wind Speed Gust Speed Precip Events Conditions
12:15 AM 71.6 °F - 55.4 °F 57% 30.11 in 10.0 mi ESE 8.1 mph - N/A   Clear
12:35 AM 71.6 °F - 55.4 °F 57% 30.11 in 10.0 mi ESE 10.4 mph 16.1 mph N/A   Clear
1:15 AM 69.8 °F - 55.4 °F 60% 30.11 in 10.0 mi ESE 9.2 mph - N/A   Clear
1:35 AM 69.8 °F - 55.4 °F 60% 30.11 in 10.0 mi ESE 9.2 mph - N/A   Clear
1:55 AM 69.8 °F - 55.4 °F 60% 30.11 in 10.0 mi ESE 9.2 mph - N/A   Clear
2:35 AM 69.8 °F - 55.4 °F 60% 30.12 in 10.0 mi ESE 8.1 mph - N/A   Clear
2:55 AM 69.8 °F - 55.4 °F 60% 30.12 in 10.0 mi ESE 8.1 mph - N/A   Clear
3:15 AM 68.0 °F - 55.4 °F 64% 30.11 in 10.0 mi ESE 9.2 mph - N/A   Clear
3:35 AM 68.0 °F - 55.4 °F 64% 30.12 in 10.0 mi ESE 8.1 mph - N/A   Clear
3:55 AM 68.0 °F - 55.4 °F 64% 30.12 in 10.0 mi ESE 5.8 mph - N/A   Clear
4:15 AM 66.2 °F - 55.4 °F 68% 30.12 in 10.0 mi East 4.6 mph - N/A   Clear
4:35 AM 64.4 °F - 55.4 °F 73% 30.12 in 10.0 mi East 4.6 mph - N/A   Clear
4:55 AM 64.4 °F - 55.4 °F 73% 30.12 in 10.0 mi East 5.8 mph - N/A   Clear
5:15 AM 64.4 °F - 55.4 °F 73% 30.13 in 10.0 mi East 4.6 mph - N/A   Clear
5:35 AM 62.6 °F - 55.4 °F 77% 30.13 in 10.0 mi East 4.6 mph - N/A   Clear
6:15 AM 62.6 °F - 57.2 °F 82% 30.13 in 10.0 mi East 5.8 mph - N/A   Clear
6:35 AM 62.6 °F - 57.2 °F 82% 30.13 in 10.0 mi East 4.6 mph - N/A   Clear
6:55 AM 62.6 °F - 57.2 °F 82% 30.13 in 10.0 mi East 3.5 mph - N/A   Clear
7:15 AM 62.6 °F - 57.2 °F 82% 30.13 in 10.0 mi East 4.6 mph - N/A   Clear
7:35 AM 62.6 °F - 57.2 °F 82% 30.13 in 10.0 mi East 5.8 mph - N/A   Clear
7:55 AM 62.6 °F - 57.2 °F 82% 30.13 in 10.0 mi East 4.6 mph - N/A   Clear
8:15 AM 62.6 °F - 59.0 °F 88% 30.14 in 10.0 mi East 3.5 mph - N/A   Clear
8:35 AM 64.4 °F - 59.0 °F 83% 30.14 in 10.0 mi Calm Calm - N/A   Clear
8:55 AM 68.0 °F - 59.0 °F 73% 30.15 in 10.0 mi SE 5.8 mph - N/A   Clear
9:15 AM 69.8 °F - 59.0 °F 68% 30.15 in 10.0 mi SE 6.9 mph - N/A   Clear
9:35 AM 71.6 °F - 59.0 °F 64% 30.16 in 10.0 mi SE 10.4 mph - N/A   Clear
9:55 AM 73.4 °F - 59.0 °F 61% 30.15 in 10.0 mi SE 12.7 mph 19.6 mph N/A   Clear
10:15 AM 75.2 °F - 59.0 °F 57% 30.16 in 10.0 mi SSE 13.8 mph 20.7 mph N/A   Clear
10:35 AM 77.0 °F - 59.0 °F 54% 30.15 in 10.0 mi SE 12.7 mph 20.7 mph N/A   Clear
10:55 AM 77.0 °F - 59.0 °F 54% 30.15 in 10.0 mi SE 13.8 mph 20.7 mph N/A   Clear
11:35 AM 78.8 °F - 59.0 °F 51% 30.13 in 10.0 mi SSE 13.8 mph 19.6 mph N/A   Clear
11:55 AM 78.8 °F - 59.0 °F 51% 30.13 in 10.0 mi SSE 13.8 mph 21.9 mph N/A   Clear
12:15 PM 78.8 °F - 59.0 °F 51% 30.13 in 10.0 mi SSE 16.1 mph 21.9 mph N/A   Scattered Clouds
12:35 PM 78.8 °F - 59.0 °F 51% 30.12 in 10.0 mi SSE 9.2 mph 19.6 mph N/A   Scattered Clouds
12:55 PM 78.8 °F - 59.0 °F 51% 30.11 in 10.0 mi SSE 9.2 mph - N/A   Scattered Clouds
1:35 PM 80.6 °F 80.8 °F 57.2 °F 45% 30.09 in 10.0 mi SE 12.7 mph 20.7 mph N/A   Scattered Clouds
1:55 PM 80.6 °F 80.5 °F 55.4 °F 42% 30.08 in 10.0 mi SSE 13.8 mph 21.9 mph N/A   Mostly Cloudy
2:15 PM 78.8 °F - 55.4 °F 44% 30.08 in 10.0 mi SSE 9.2 mph - N/A   Scattered Clouds
2:35 PM 78.8 °F - 55.4 °F 44% 30.07 in 10.0 mi SSE 13.8 mph - N/A   Scattered Clouds
2:55 PM 80.6 °F 80.5 °F 55.4 °F 42% 30.07 in 10.0 mi SE 13.8 mph 19.6 mph N/A   Scattered Clouds
3:15 PM 80.6 °F 80.5 °F 55.4 °F 42% 30.06 in 10.0 mi SE 11.5 mph 18.4 mph N/A   Scattered Clouds
3:35 PM 78.8 °F - 55.4 °F 44% 30.06 in 10.0 mi SE 13.8 mph 19.6 mph N/A   Scattered Clouds
3:55 PM 80.6 °F 80.3 °F 53.6 °F 39% 30.05 in 10.0 mi ESE 10.4 mph 16.1 mph N/A   Clear
4:15 PM 78.8 °F - 53.6 °F 42% 30.04 in 10.0 mi SE 15.0 mph 19.6 mph N/A   Clear
4:35 PM 78.8 °F - 53.6 °F 42% 30.04 in 10.0 mi SE 10.4 mph - N/A   Clear
4:55 PM 78.8 °F - 53.6 °F 42% 30.04 in 10.0 mi SE 11.5 mph - N/A   Clear
5:15 PM 78.8 °F - 51.8 °F 39% 30.05 in 10.0 mi SE 8.1 mph 16.1 mph N/A   Clear
5:35 PM 78.8 °F - 51.8 °F 39% 30.04 in 10.0 mi SE 9.2 mph 16.1 mph N/A   Clear
5:55 PM 77.0 °F - 53.6 °F 44% 30.04 in 10.0 mi ESE 6.9 mph - N/A   Clear
6:15 PM 77.0 °F - 53.6 °F 44% 30.04 in 10.0 mi East 6.9 mph - N/A   Clear
6:35 PM 73.4 °F - 53.6 °F 50% 30.05 in 10.0 mi ESE 5.8 mph - N/A   Clear
6:55 PM 71.6 °F - 53.6 °F 53% 30.05 in 10.0 mi ESE 4.6 mph - N/A   Clear
7:15 PM 71.6 °F - 53.6 °F 53% 30.05 in 10.0 mi East 4.6 mph - N/A   Clear
7:35 PM 69.8 °F - 53.6 °F 56% 30.05 in 10.0 mi East 3.5 mph - N/A   Clear
7:55 PM 69.8 °F - 53.6 °F 56% 30.05 in 10.0 mi East 4.6 mph - N/A   Clear
8:15 PM 69.8 °F - 53.6 °F 56% 30.05 in 10.0 mi East 6.9 mph - N/A   Clear
8:35 PM 69.8 °F - 53.6 °F 56% 30.05 in 10.0 mi ESE 5.8 mph - N/A   Clear
8:55 PM 68.0 °F - 53.6 °F 60% 30.05 in 10.0 mi East 5.8 mph - N/A   Clear
9:15 PM 68.0 °F - 53.6 °F 60% 30.05 in 10.0 mi ESE 5.8 mph - N/A   Clear
9:35 PM 68.0 °F - 53.6 °F 60% 30.05 in 10.0 mi ESE 4.6 mph - N/A   Clear
9:55 PM 68.0 °F - 53.6 °F 60% 30.05 in 10.0 mi ESE 4.6 mph - N/A   Clear
10:15 PM 68.0 °F - 53.6 °F 60% 30.05 in 10.0 mi ESE 5.8 mph - N/A   Clear
10:35 PM 68.0 °F - 53.6 °F 60% 30.05 in 10.0 mi ESE 4.6 mph - N/A   Clear
10:55 PM 68.0 °F - 53.6 °F 60% 30.05 in 10.0 mi ESE 4.6 mph - N/A   Clear
11:15 PM 68.0 °F - 53.6 °F 60% 30.05 in 10.0 mi ESE 5.8 mph - N/A   Clear
11:35 PM 68.0 °F - 53.6 °F 60% 30.05 in 10.0 mi ESE 6.9 mph - N/A   Clear
11:55 PM 68.0 °F - 53.6 °F 60% 30.05 in 10.0 mi ESE 5.8 mph - N/A   Clear